GFSNGP_sfc_30mbdewp_186.txt.gz
Dewpoint
16 15 14 13 13 13 13 15 15 14 13 16 16 19 18 18 18 24 27 32 36 36 38 37 37 37 37 38 38 37 36 35 34 33 33 33 33 32 29 28 26 24 23 21
17 14 10 9 9 10 10 9 8 11 12 16 18 18 17 17 17 19 22 31 34 37 38 38 38 38 38 38 37 35 33 33 33 33 33 33 30 28 27 26 24 22 19 19
18 12 10 12 12 11 13 13 12 12 13 15 15 17 17 20 24 27 31 31 33 37 38 39 38 39 38 37 36 34 32 32 32 33 32 29 26 25 24 23 22 20 18 18
18 18 12 12 10 9 11 14 14 15 17 14 16 19 26 27 29 28 27 29 31 32 36 38 40 39 38 37 35 34 33 33 33 31 28 26 24 22 20 20 18 16 16 18
17 13 10 8 11 16 15 14 15 15 16 17 21 24 20 21 26 29 31 32 32 33 34 35 40 40 38 36 34 33 32 32 32 30 27 24 23 26 25 17 14 13 14 16
12 13 11 7 7 11 15 11 11 14 17 21 21 15 15 25 28 30 31 32 32 34 36 38 40 40 37 34 33 32 31 31 31 30 28 27 27 24 18 14 11 8 10 15
18 15 12 9 14 15 11 9 13 18 20 21 20 19 25 26 28 32 32 32 32 32 34 37 38 36 34 32 31 31 31 30 30 29 28 26 25 20 13 10 8 10 12 14
18 17 15 14 15 10 10 16 20 21 21 22 24 26 27 27 29 31 32 31 32 32 32 33 34 33 31 30 31 30 30 29 29 28 27 26 22 14 7 7 9 13 15 16
13 21 26 24 16 18 19 18 20 21 23 22 24 24 25 25 27 30 32 32 32 32 32 31 31 31 30 31 30 30 30 28 27 26 25 23 15 8 5 7 11 14 14 16
16 16 18 20 21 21 21 19 23 22 14 13 16 20 21 19 20 28 31 32 32 32 31 31 31 31 31 31 31 31 29 27 26 24 22 18 13 7 7 9 13 15 16 17
22 20 18 17 20 21 19 16 15 20 20 18 18 18 18 15 18 27 30 33 33 34 33 32 32 32 31 32 32 30 28 27 25 22 17 13 12 11 12 17 17 17 17 18
16 19 19 15 16 22 20 16 17 17 16 18 18 17 19 20 25 29 33 34 34 34 33 33 33 32 31 32 31 28 27 24 20 16 13 11 13 16 16 18 15 16 17 18
15 16 19 20 18 17 18 17 13 15 14 14 19 21 25 28 32 34 34 34 34 34 32 32 32 31 32 32 31 28 24 20 18 16 13 13 15 15 15 15 15 14 14 14
16 17 17 18 19 19 16 15 18 18 17 17 18 17 23 30 35 34 33 33 35 33 32 32 32 31 32 31 30 28 26 22 20 19 18 17 17 17 16 16 16 16 16 16
18 18 19 20 20 20 21 20 19 19 19 18 18 22 25 31 33 32 32 32 32 31 31 31 30 30 31 31 29 28 27 24 24 23 21 19 18 18 18 17 17 17 18 15
27 28 27 27 27 25 18 17 17 17 17 16 16 20 28 32 33 31 31 31 30 29 30 30 29 29 30 29 28 28 26 25 23 23 21 20 19 18 17 17 17 17 16 14
27 27 27 26 28 28 23 19 19 19 20 20 20 24 32 31 29 28 28 29 31 30 30 30 29 29 29 29 28 26 24 24 22 21 20 19 18 18 17 17 16 16 16 16
29 30 30 29 28 24 23 22 23 24 23 24 27 32 30 29 30 30 29 29 29 28 29 29 27 27 27 28 28 25 23 22 21 20 19 19 18 17 16 16 15 14 14 16
25 27 30 32 32 30 30 29 29 34 34 33 32 32 31 31 31 29 28 27 26 25 26 26 25 26 26 25 23 23 22 21 19 19 19 20 19 17 17 17 16 15 14 14
25 28 30 31 31 32 32 32 33 33 33 33 33 31 29 30 29 27 27 27 28 29 24 24 24 24 22 21 21 21 22 22 20 19 21 19 19 19 17 16 16 16 16 15
26 28 29 29 29 30 31 32 33 32 32 32 31 31 30 28 27 26 26 25 24 23 22 21 19 19 19 20 20 20 23 23 22 20 20 19 18 18 18 17 16 16 16 17
28 28 28 28 28 29 30 30 32 32 31 31 31 29 26 25 25 25 26 27 23 21 20 20 19 19 19 20 18 22 22 21 21 21 20 19 18 18 17 17 16 16 17 18
27 28 28 28 27 27 28 29 29 30 30 29 28 26 27 25 25 24 24 23 22 20 21 21 21 20 21 21 22 23 21 20 20 20 19 18 18 18 18 17 17 16 16 16
26 26 27 29 29 27 25 25 27 28 28 28 27 28 26 25 24 26 24 21 21 20 23 24 21 20 20 23 23 22 21 20 19 19 19 19 20 19 18 17 16 17 16 15
25 26 26 27 28 27 26 25 25 25 25 25 25 25 26 28 28 24 23 22 20 21 23 20 19 19 21 23 22 21 20 20 20 20 20 20 19 18 18 17 16 15 15 14
25 25 25 25 25 25 25 26 26 25 25 24 24 25 25 23 23 23 23 21 20 22 23 20 20 19 21 21 21 19 19 19 20 19 19 18 18 18 17 17 16 14 14 13
25 24 24 24 24 24 25 26 25 24 26 26 23 24 23 23 23 22 22 22 21 22 21 21 20 19 20 19 19 18 18 19 19 18 18 18 19 18 17 15 15 15 14 13

GFSNGP_sfc_30mbdewp_189.txt.gz
Dewpoint
14 14 13 13 5 5 16 26 23 20 16 14 11 16 24 24 18 16 17 23 28 34 39 39 38 37 37 37 38 37 36 37 37 37 35 34 34 34 34 35 32 28 27 24
13 13 13 13 14 16 11 10 5 5 6 9 9 11 26 24 16 16 16 18 25 32 35 39 38 37 37 38 38 38 37 35 34 32 32 33 33 34 34 30 28 26 24 22
14 13 13 18 16 10 11 7 6 6 8 9 9 10 18 18 15 17 21 29 29 31 34 37 39 38 38 38 37 36 34 33 33 32 32 32 33 33 33 29 25 21 20 21
15 15 11 11 17 14 8 8 9 8 11 12 10 15 19 22 22 22 26 26 27 28 29 32 39 39 40 38 37 35 34 32 32 33 32 32 33 31 28 24 22 19 19 21
11 15 14 10 9 9 5 8 6 5 11 15 13 15 19 19 22 24 25 25 25 28 30 31 31 40 40 38 37 34 33 32 32 33 33 31 27 25 23 22 22 18 18 19
10 11 9 8 5 16 17 6 14 13 10 9 12 16 19 27 25 24 25 27 29 30 32 34 37 38 40 37 36 33 33 32 32 33 31 30 27 28 28 25 18 15 16 18
14 10 7 6 6 7 19 9 12 11 10 12 15 17 27 26 24 24 25 27 30 30 32 35 39 41 39 36 34 34 33 32 31 31 30 30 30 29 22 15 12 11 13 18
18 16 13 19 10 7 17 18 18 16 15 17 18 26 24 22 24 24 22 24 27 30 32 33 36 38 36 34 33 32 31 30 30 30 30 29 27 25 16 11 10 13 16 18
20 17 27 25 23 25 30 23 21 25 18 20 20 22 20 20 18 19 23 22 27 30 32 33 34 33 32 31 31 30 30 29 29 29 29 28 25 18 11 10 14 17 17 18
14 15 18 28 27 23 24 27 20 20 18 20 18 18 16 12 10 11 19 24 28 31 32 32 32 32 32 31 31 30 29 29 29 28 27 27 22 13 11 14 17 19 19 20
11 12 16 19 23 20 19 21 18 20 19 16 15 14 12 11 9 11 20 23 30 32 34 33 32 33 32 31 31 31 30 29 28 27 26 24 17 13 15 20 22 22 22 23
15 13 13 15 19 23 21 20 18 17 17 19 17 16 13 14 15 16 21 24 31 34 34 34 34 32 32 33 33 31 29 28 27 26 25 20 14 16 20 21 19 21 24 25
13 14 15 16 17 19 17 16 18 18 14 13 13 15 16 18 22 26 29 28 33 35 35 34 33 32 32 33 34 32 29 29 27 27 20 16 17 18 19 18 18 19 19 20
13 15 16 17 19 20 21 19 14 14 16 16 16 15 15 17 24 35 35 37 36 36 34 34 33 32 33 33 33 33 32 28 25 25 21 21 20 19 18 16 15 15 16 16
15 17 19 20 19 19 19 19 17 16 12 14 15 16 18 21 24 26 36 35 35 34 32 32 32 32 33 33 33 32 30 27 27 25 24 23 22 20 18 17 16 17 17 16
24 27 28 27 27 27 27 26 24 16 16 16 17 17 18 18 22 25 34 33 32 31 31 32 31 31 32 32 31 30 30 29 27 25 23 22 22 20 19 18 18 18 18 16
30 28 29 28 28 28 27 26 25 20 17 17 18 19 18 18 24 31 33 33 33 32 32 32 31 31 31 31 30 29 29 27 24 23 21 20 20 20 19 19 19 19 21 20
32 29 26 27 30 30 29 25 22 21 22 24 24 24 27 29 32 33 31 31 31 31 31 32 31 30 30 31 31 31 28 24 23 22 21 20 20 19 19 18 18 18 18 22
24 24 25 26 29 31 32 31 31 34 35 33 32 31 33 33 33 32 31 30 29 28 29 30 29 30 30 31 31 29 27 24 22 21 21 21 21 19 19 20 19 18 17 21
25 25 26 29 30 31 31 32 34 33 35 35 34 33 32 32 32 30 30 29 29 30 29 28 29 29 29 29 30 27 26 25 22 22 24 22 24 24 22 19 19 20 20 19
26 27 28 30 30 30 31 31 31 32 33 33 32 32 32 31 30 29 28 27 28 28 29 27 29 28 28 26 24 26 27 27 26 23 24 24 24 23 23 22 21 21 22 21
28 29 29 29 29 29 30 30 31 32 33 32 32 32 30 29 28 29 30 31 28 28 27 27 26 25 24 23 22 27 26 25 25 24 24 24 23 22 22 22 21 19 19 22
27 28 28 29 29 28 29 29 30 32 32 32 31 30 29 28 29 27 27 28 26 25 26 26 24 23 23 25 29 28 26 26 25 24 25 25 24 23 21 21 21 21 20 20
26 26 27 29 30 30 26 27 28 29 30 30 30 30 29 28 28 31 31 26 25 25 28 27 24 24 25 28 28 26 25 25 24 24 23 22 23 22 22 22 20 20 20 20
26 26 27 27 28 28 29 28 27 27 27 27 28 29 30 31 30 28 29 26 24 26 27 24 23 23 27 28 25 25 24 24 23 23 21 22 21 21 21 21 20 18 19 18
26 25 26 27 26 27 27 29 29 29 28 27 27 28 28 29 28 28 27 24 25 25 24 23 23 23 26 25 24 24 24 23 23 22 22 22 21 21 20 20 20 19 19 16
27 26 27 28 27 26 27 29 28 28 29 29 26 28 28 28 28 26 25 24 25 25 24 23 22 23 23 23 23 22 21 22 21 20 21 21 21 20 21 20 19 17 17 18

GFSNGP_sfc_30mbdewp_192.txt.gz
Dewpoint
13 11 13 11 10 10 12 13 11 13 12 22 26 25 28 26 25 25 25 27 25 38 40 39 39 38 37 37 38 38 37 37 36 36 36 36 36 35 35 35 34 34 32 27
11 10 7 8 9 6 6 8 10 11 14 23 22 22 13 14 22 22 24 21 18 26 41 39 39 38 37 37 37 38 37 37 37 35 34 33 33 33 33 33 33 33 27 25
11 9 9 9 7 8 10 13 15 14 17 14 10 9 12 26 25 24 23 35 35 32 36 40 39 38 38 38 38 38 37 35 33 33 32 32 33 33 33 32 32 29 27 22
10 8 6 7 6 6 9 16 22 23 20 15 11 15 20 25 25 25 31 32 33 29 27 39 41 39 39 38 38 36 35 34 33 33 32 32 33 32 32 31 30 30 27 26
11 11 9 6 5 5 11 15 23 25 23 20 18 19 30 29 30 32 29 26 25 27 29 31 32 41 39 38 37 36 34 33 33 32 32 32 32 32 32 31 28 24 25 23
19 15 10 8 4 3 6 9 16 23 19 20 17 13 29 35 33 24 24 26 27 29 30 33 38 42 40 39 37 35 34 33 33 32 31 31 32 31 31 30 26 21 22 21
19 16 16 13 9 16 6 12 27 31 30 26 24 26 32 32 30 26 23 24 26 27 30 35 39 42 40 39 37 35 34 33 32 32 32 31 31 30 30 29 24 20 21 21
15 15 13 28 27 17 21 26 29 31 29 31 30 31 30 26 23 23 20 22 24 27 31 34 36 39 37 36 36 34 32 32 31 31 31 31 30 30 30 23 17 18 22 22
15 13 15 25 28 28 28 27 28 29 31 32 31 29 23 20 20 19 20 20 25 27 32 33 34 34 33 32 33 32 31 31 30 30 30 30 29 29 20 14 15 18 21 22
9 9 9 12 29 30 28 29 25 27 28 31 29 28 18 18 13 10 14 21 25 28 31 32 33 33 32 32 32 31 30 29 29 29 29 29 29 27 17 16 19 20 21 23
12 12 11 14 25 29 31 27 25 28 29 32 26 16 15 14 11 9 14 20 28 31 33 33 33 33 32 32 31 30 29 29 29 29 28 28 27 21 18 21 23 22 23 25
15 17 14 12 15 16 17 22 20 18 21 22 25 17 16 14 13 13 16 21 32 34 34 34 33 32 32 32 32 31 29 29 28 27 27 26 25 21 20 24 24 24 25 26
14 15 15 16 17 16 16 15 18 19 16 20 17 17 16 16 22 26 28 27 31 35 35 34 34 32 32 32 33 32 29 29 28 27 26 24 23 23 21 22 23 24 26 25
16 20 20 20 21 21 20 19 20 20 19 17 19 17 16 18 21 30 32 35 36 36 35 34 33 32 33 33 33 32 30 29 28 28 27 24 21 22 21 19 19 20 23 24
22 26 26 26 25 24 25 26 26 25 22 16 17 17 20 20 20 26 36 36 36 35 34 34 33 32 33 33 32 31 31 30 29 30 25 23 23 23 21 20 19 19 18 18
27 31 30 30 30 28 27 27 25 25 24 25 20 18 19 19 19 22 35 35 33 32 33 33 32 32 33 33 32 32 31 30 30 28 25 25 24 23 20 19 18 18 16 16
31 29 30 31 31 28 28 27 29 31 27 25 23 22 23 21 23 23 35 34 34 33 33 32 32 32 32 32 31 31 30 29 29 28 26 25 24 22 21 21 20 20 19 19
31 31 27 25 25 26 26 28 29 30 34 35 34 29 26 24 26 32 32 32 32 32 32 32 32 31 31 31 31 30 29 29 28 27 24 23 23 22 22 22 21 21 22 21
30 26 25 24 25 28 31 31 31 32 34 34 34 33 32 33 33 31 31 31 30 30 30 31 31 31 30 31 31 31 29 28 26 25 24 23 23 22 22 22 22 22 24 25
26 25 25 27 30 30 31 31 31 32 33 34 33 33 32 33 32 31 31 30 30 31 30 30 30 30 30 31 32 31 28 26 25 25 25 24 24 23 23 23 22 22 23 23
27 28 28 29 30 30 31 31 30 30 31 33 32 33 33 32 31 31 30 28 30 30 30 30 30 31 31 31 32 31 30 27 26 25 25 25 25 24 23 24 22 22 23 24
28 28 28 29 29 30 31 29 30 30 31 32 32 33 32 30 30 30 31 30 29 30 29 29 30 29 30 30 30 32 29 27 26 27 27 25 26 26 24 24 24 23 23 24
27 27 26 27 28 29 30 29 29 31 32 32 32 31 31 29 30 29 27 29 30 30 30 31 31 29 27 29 30 29 27 25 27 27 28 27 25 25 25 24 24 24 23 23
26 26 26 28 29 30 28 28 29 29 30 30 31 31 30 29 30 32 31 30 29 28 30 27 25 24 26 31 30 29 28 27 26 27 26 27 26 25 24 24 24 24 23 23
26 26 28 28 27 28 30 30 29 28 28 28 29 30 31 31 30 30 30 29 28 29 26 25 25 27 29 29 28 27 26 27 26 26 25 24 24 24 23 24 23 23 22 22
28 27 27 29 28 28 29 31 30 29 29 28 28 29 29 30 29 28 28 28 28 27 26 25 25 27 28 27 27 27 27 26 25 24 24 23 23 23 23 23 23 21 22 21
29 28 27 29 28 28 28 30 30 29 30 29 27 28 29 29 28 27 28 28 27 25 25 25 24 26 27 26 26 26 26 26 25 23 23 24 23 23 23 23 23 21 22 20

GFSNGP_sfc_30mbdewp_195.txt.gz
Dewpoint
17 16 16 15 14 14 14 13 10 10 8 8 10 13 23 27 25 26 26 28 30 32 40 39 39 39 39 39 39 38 38 37 37 37 37 36 35 34 34 33 33 33 32 32
13 13 12 10 9 8 7 7 8 9 8 11 21 22 19 26 25 25 27 26 27 26 41 39 39 38 38 38 38 38 37 37 36 36 36 35 34 33 33 33 33 32 31 31
10 12 12 10 9 8 9 10 9 7 9 21 24 23 22 19 21 25 27 25 36 40 41 41 40 38 37 37 38 38 37 37 36 35 33 33 33 33 32 32 32 31 30 24
10 11 7 8 8 6 5 6 7 9 17 20 21 24 26 32 27 30 31 36 36 36 42 43 41 38 38 38 38 37 36 35 34 34 33 33 33 32 32 31 31 30 27 26
9 9 9 10 10 10 9 10 10 20 17 21 29 29 29 35 34 36 36 36 37 32 31 39 41 39 38 38 38 37 35 34 34 33 32 32 31 31 31 30 30 30 27 26
15 14 10 8 21 23 23 12 25 28 26 30 30 24 27 34 36 35 37 37 34 30 36 38 40 40 38 38 37 35 35 34 34 33 32 32 31 31 31 31 30 30 26 26
16 17 16 20 19 24 15 15 26 27 30 30 31 33 34 35 34 34 35 27 28 34 36 38 39 41 38 38 37 36 35 34 33 33 32 32 32 31 30 29 29 29 25 25
15 13 10 21 23 18 21 27 28 30 30 31 33 34 37 35 32 25 25 26 31 33 34 37 38 39 38 38 37 36 34 32 32 32 32 31 31 30 30 28 27 27 23 23
23 19 22 22 22 26 30 31 30 31 31 30 31 32 34 34 35 22 24 25 31 33 34 35 35 36 36 34 35 33 32 31 31 31 31 31 30 29 28 28 26 25 23 22
23 20 17 16 28 30 30 30 30 27 28 27 30 31 33 36 35 21 24 26 32 33 33 33 33 33 34 34 33 32 31 31 31 30 29 30 30 29 27 24 25 25 23 22
17 16 18 17 19 25 28 28 28 26 22 20 30 30 30 32 26 17 24 28 31 33 33 32 32 32 32 32 32 30 30 29 29 29 29 28 29 28 23 24 25 23 23 23
15 17 19 19 18 19 20 17 19 20 21 21 25 29 30 28 22 18 24 31 32 34 33 32 32 31 31 32 30 29 28 28 28 28 28 27 26 25 28 27 24 24 25 25
16 15 18 27 28 27 26 24 22 22 21 20 21 22 29 26 28 32 33 34 34 34 33 33 32 31 30 30 30 29 28 28 27 27 26 24 24 24 23 27 29 28 26 27
17 22 26 30 29 30 29 27 28 27 27 24 23 21 20 19 27 25 28 32 35 34 33 33 32 31 30 30 32 30 28 28 27 27 25 24 24 23 23 22 22 24 26 26
28 29 30 30 30 30 30 28 27 27 27 28 27 27 24 21 21 23 32 34 35 34 33 32 32 32 31 31 32 29 29 28 27 27 25 24 25 22 22 20 20 21 23 24
31 31 31 30 31 31 30 28 28 28 32 35 33 29 28 26 23 30 34 34 33 33 33 33 33 32 32 31 31 30 29 28 29 27 26 25 24 22 22 20 20 19 19 19
30 28 28 29 28 26 27 27 27 29 30 33 32 33 31 25 26 31 32 33 33 33 34 34 33 32 32 32 31 31 30 29 29 27 26 25 25 24 22 21 19 19 18 17
32 32 32 32 26 25 26 28 29 30 31 32 32 32 31 28 26 30 32 32 33 32 33 33 33 32 32 32 32 31 29 29 28 26 27 26 25 24 22 20 20 19 18 17
30 27 25 25 27 29 30 30 30 31 30 31 32 32 32 30 30 30 31 30 30 29 31 32 31 31 31 31 31 30 29 28 27 27 26 25 24 23 21 21 20 21 22 19
26 27 28 28 29 30 29 29 30 30 31 31 32 32 31 32 32 30 30 28 29 30 31 31 31 31 31 30 30 29 28 27 27 26 24 23 22 21 21 22 22 22 25 23
26 27 28 28 28 27 29 31 30 28 29 30 30 32 32 32 32 31 29 28 29 31 31 30 30 30 30 30 31 29 28 27 26 25 25 23 22 22 23 23 22 23 23 23
26 27 27 27 27 28 29 30 29 28 29 31 31 32 32 30 30 30 31 28 29 29 29 30 30 30 30 31 31 29 27 26 26 26 27 26 25 24 22 24 25 23 24 22
26 27 27 26 27 28 29 30 28 29 30 32 32 32 31 30 29 28 26 28 28 28 29 30 30 30 30 30 31 29 27 26 27 28 27 25 26 27 25 23 23 23 23 24
26 26 26 28 28 29 28 27 28 28 29 30 31 32 30 29 29 31 29 29 29 29 29 30 30 30 30 30 30 28 27 25 26 28 27 26 24 24 24 24 24 23 23 23
28 28 27 28 26 27 28 30 28 27 27 28 29 30 30 31 29 29 29 29 29 28 27 28 28 29 29 28 28 26 25 25 26 26 25 26 25 24 23 24 24 23 22 21
28 28 28 29 29 28 28 29 29 28 28 27 28 28 28 28 28 28 28 28 26 25 25 26 27 27 27 26 25 25 25 25 25 25 24 23 23 22 23 24 23 22 21 20
28 28 28 27 27 28 29 28 29 28 28 27 26 28 27 27 27 27 26 26 25 25 25 24 26 27 26 26 26 26 26 25 24 24 23 22 21 22 23 22 21 20 19 17